DMSP 5D-2 F13 DEB

Satellite information

Favourite Embed

Satellite Type and Status

DEBRISIN ORBIT

Key statistics

Satellite DMSP 5D-2 F13 DEB at a glance.

Uptime

11063

Days in orbit

Revolutions

≈ 14.4

Per day

Orbit

SSO

Sun Synchronous Orbit

Inclination

98.7

Latest

Satellite identification and parameters

Extended collection of information and parameters for DMSP 5D-2 F13 DEB.

Object identification

Identified? True

Debris? True

Object name: DMSP 5D-2 F13 DEB

International designator: 1995-015JT

Object number (NORAD): 42325

Object ID (CCSDS): 42325

Country: UNITED STATES OF AMERICA (US)

Current information (Y/N): Y

RCS size: SMALL

Orbital parameters

Period: 100.126 minutes

Inclination: 98.7276 deg

SMA: 7142.611 km

Apoapsis: 774.485 km

Periapsis: 754.466 km

RAAN: 222.8996 deg

Eccentricy: 0.0014014

Argument of periapsis: 94.8798 deg

Mean anomaly: 265.3989 deg

Mean motion: 14.38193397 rev/day

Mean motion (dot): 0.00004985 rev/day2

B* drag term: 0.0016539 1/REarth

Two-line elements (TLE)

Creation date: July 6, 2025, 6:05 p.m.

Reference frame: TEME

Reference center: EARTH

Epoch: July 6, 2025, 12:46 p.m. UTC

TLE line 0: 0 DMSP 5D-2 F13 DEB

TLE line 1: 1 42325U 95015JT 25187.53230634 .00004985 00000-0 16539-2 0 9997

TLE line 2: 2 42325 98.7276 222.8996 0014014 94.8798 265.3989 14.38193397502995

Live tracking on map

Real-time ground track for satellite DMSP 5D-2 F13 DEB.

In-orbit conjunctions

A list of the most updated potential collisions computed for object DMSP 5D-2 F13 DEB.

Target Orbit TCA Probability of collision Miss distance Type
COSMOS 2251 DEB LEO 2025-05-19 02:16:07 0.0001942254 190.0 (m) DEBRIS
SL-8 R/B LEO 2025-04-04 16:34:04 0.0001915256 824.0 (m) ROCKET BODY
CZ-6A DEB LEO 2024-11-20 02:34:08 0.0002671985 553.0 (m) DEBRIS
COSMOS 1125 LEO 2024-11-09 20:03:42 0.0001912014 520.0 (m) PAYLOAD

Associated space launch

Military meteorological satellite

DMSP 5D-2 F13 DEB was lifted into orbit during the mission ‘Atlas E | DMSP-5D2 F13’, on board a Atlas E space rocket.

The launch took place on March 24, 1995, 2:05 p.m. from Space Launch Complex 3W.

For more information about the launch, click the button.

Launch to space Atlas E | DMSP-5D2 F13
Atlas E | DMSP-5D2 F13

Agency: N/A

Status: Launch Successful

Launch date: March 24, 1995, 2:05 p.m. UTC

Rocket: Atlas E

Launch pad: Space Launch Complex 3W

Location: Vandenberg SFB, CA, USA

...

Latest news about this satellite

There are no fresh news available about this satellite. Check back as we update our databases every day.


Newsletter sign-up

Weekly statistics, charts and insights to help you stay on top of the space industry.